Regional Weather Roundup
Issued by NWS

Home | Current Version | Previous Version | Text Only | Print | Product List | Glossary On
Versions: 1 2 3 4 5 6 7 8 9 10 11 12 13 14 15 16 17 18 19 20 21 22 23 24 25 26 27 28 29 30 31 32 33 34 35 36 37 38 39 40 41 42 43 44 45 46 47 48 49 50
000
ASUS43 KLMK 012310
RWRKY
KENTUCKY REGIONAL WEATHER ROUNDUP
NATIONAL WEATHER SERVICE LOUISVILLE KY
700 PM EDT SUN MAY 01 2016

NOTE "FAIR" INDICATES FEW OR NO CLOUDS BELOW 12,000 FEET
WITH NO SIGNIFICANT WEATHER AND/OR OBSTRUCTIONS TO VISIBILITY.

KYZ001>023-026-027-061>063-070>075-020000-
WESTERN AND SOUTH CENTRAL KENTUCKY

CITY           SKY/WX    TMP DP  RH WIND       PRES   REMARKS
PADUCAH        MOSUNNY   79  63  57 SW10      29.88F
HENDERSON      MOSUNNY   81  63  54 SW13      29.86F
OWENSBORO      MOSUNNY   80  66  62 SW10      29.87F
HOPKINSVILLE   SUNNY     76  63  62 SW8       29.91F
BOWLING GREEN  SUNNY     80  64  58 SW10      29.90F
GLASGOW        MOSUNNY   78  63  60 SW10      29.92S
$$

KYZ024-025-028>034-038-045-046-053-020000-
NORTH CENTRAL KENTUCKY

CITY           SKY/WX    TMP DP  RH WIND       PRES   REMARKS
LOUISVILLE/SDF LGT RAIN  70  64  81 NW5       29.90F
LOUISVILLE/LOU PTSUNNY   70  64  81 NW3       29.90F
FORT KNOX      SUNNY     76  65  70 W7        29.88F
$$

KYZ035>037-039>044-047>052-055>060-089>105-020000-
NORTHEAST KENTUCKY

CITY           SKY/WX    TMP DP  RH WIND       PRES   REMARKS
LEXINGTON      CLOUDY    66  61  84 SE7       29.92F
COVINGTON      PTSUNNY   64  60  87 S5        29.90S
FRANKFORT      MOSUNNY   69  60  73 CALM      29.90F
$$

KYZ054-064>069-076>088-106>120-020000-
SOUTHEAST KENTUCKY

CITY           SKY/WX    TMP DP  RH WIND       PRES   REMARKS
JACKSON        MOSUNNY   76  61  59 NW13G21   29.92R
LONDON         PTSUNNY   79  60  52 W12       29.91F
SOMERSET       MOSUNNY   75  61  60 W8        29.93S
MIDDLESBORO    CLOUDY    78  63  59 S7G17     29.93S
MONTICELLO     MOCLDY    77  64  64 W16       29.94R
$$





USA.gov is the U.S. government's official web portal to all federal, state and local government web resources and services.